Location: Drainage Ditch Number 39
(43.2580°N, 93.8313°W)
Time: 04:01:28
(UTC+00:00)

Daily predictions for brighter satellites

Satellite Brightness Start Highest point End
(mag) Time Altitude Azimuth Time Altitude Azimuth Time Altitude Azimuth
SPOT 1/Viking Rocket 3.8 01:20:49 10° SSE 01:25:52 54° ENE 01:30:57 10° N
Cosmos 2341 Rocket 4.2 01:22:10 10° N 01:28:19 53° ENE 01:34:23 10° SSE
Cosmos 1674 Rocket 3.7 01:24:25 10° N 01:28:53 85° W 01:33:20 10° S
Cosmos 1825 2.4 01:25:59 10° N 01:29:16 40° ENE 01:32:32 10° SSE
CZ-4B R/B 3.5 01:25:48 10° SE 01:31:17 55° ENE 01:36:44 10° N
Okean-O 4.3 01:29:11 10° ESE 01:32:03 17° ENE 01:34:56 10° NNE
USA 234 3.3 01:29:21 10° SE 01:35:55 86° NE 01:42:29 10° NW
Cosmos 2082 Rocket 4.2 01:31:39 10° NW 01:36:31 30° WSW 01:41:21 10° SSW
NOSS 3-1 (C) 3.7 01:33:55 10° S 01:37:59 28° ESE 01:42:34 10° NE
Cosmos 2344 4.1 01:34:20 10° SW 01:41:54 62° NW 01:49:14 10° NNE
Resurs 1-3 3.8 01:39:55 10° S 01:44:16 78° WSW 01:48:38 10° NNW
IKONOS-2 4.4 01:42:36 10° NNE 01:46:50 84° ESE 01:51:02 10° SSW
Cosmos 2366 rocket 4.1 01:41:39 10° N 01:47:57 60° E 01:54:13 10° SSE
Cosmos 1025 Rocket 3.1 01:45:26 10° N 01:49:46 62° E 01:54:05 10° SSE
Okean O Rocket 1.8 01:49:58 10° SSE 01:54:11 52° ENE 01:58:26 10° N
NOSS 2-3 (C) 4.3 01:50:46 10° SW 01:54:18 48° NW 01:58:14 10° NNE
Cosmos 2218 Rocket 4.1 01:48:54 10° N 01:55:18 66° E 02:01:36 10° SSE
NOSS 2-3 (D) 4.4 01:55:56 10° WSW 01:59:28 46° NW 02:03:22 10° NNE
ATLAS 3B R/B 3.5 01:53:38 10° SSE 01:59:29 30° ESE 02:05:40 10° NE
Resurs 01 Rocket 1.7 01:55:31 10° SSE 01:59:51 62° ENE 02:04:14 10° N
Cosmos 1975 Rocket 3.4 01:57:41 10° N 02:01:52 44° ENE 02:05:11 15° SE
CARTOSAT-1 3.6 01:58:18 10° SSE 02:02:29 58° ENE 02:06:41 10° N
Cosmos 1346 Rocket 2.7 01:59:12 10° S 02:03:02 89° WNW 02:06:52 10° N
Cosmos 1821 Rocket 4.4 01:57:37 10° N 02:03:31 44° ENE 02:08:32 14° SE
USA 129 1.7 02:01:46 10° NNE 02:04:26 52° E 02:05:08 32° SSE
SJ-6B 4.1 02:00:52 10° S 02:04:36 41° W 02:08:23 10° NNW
Cosmos 1959 Rocket 4.4 01:59:23 10° N 02:05:31 74° E 02:11:41 10° SSE
USA 281 3.4 01:59:34 12° SE 02:05:34 60° ENE 02:12:02 10° NNW
Cosmos 1328 3.7 02:03:26 10° N 02:07:13 82° W 02:11:00 10° S
Cosmos 1302 Rocket 4.0 02:02:50 10° SSW 02:08:06 87° WNW 02:13:23 10° NNE
SL-27 R/B 3.9 02:08:13 10° NNE 02:10:10 16° ENE 02:10:18 16° ENE
OAO 3 Rocket 4.2 02:06:44 10° WSW 02:11:01 31° S 02:13:29 20° SE
Meteor 1-21 Rocket 4.4 02:06:54 10° N 02:12:52 90° W 02:18:47 10° S
Cosmos 1892 4.1 02:12:27 10° NNW 02:15:45 36° W 02:19:02 10° SSW
Cosmos 1782 Rocket 3.6 02:12:17 10° S 02:16:38 81° W 02:21:04 10° N
USA 186 2.9 02:17:01 10° S 02:19:57 40° W 02:22:51 10° NNW
CZ-4 R/B 3.4 02:21:32 10° SSW 02:24:56 27° W 02:28:19 10° NW
ATLAS 5 CENTAUR R/B 1.2 02:21:57 10° SSW 02:25:05 42° ESE 02:28:28 10° NE
SL-4 R/B 3.7 02:22:31 10° WNW 02:25:39 26° NNW 02:28:38 10° NE
SPOT 5 3.7 02:24:44 25° ESE 02:27:17 40° ENE 02:32:12 10° N
Cosmos 2151 Rocket 4.5 02:28:53 27° E 02:29:08 27° E 02:32:52 10° NNE
Cosmos 1455 3.5 02:25:54 10° SSW 02:29:15 39° WNW 02:32:38 10° N
BREEZE-M R/B 4.0 02:27:22 10° NW 02:29:22 20° N 02:30:33 15° NE
Meteor 1-11 4.2 02:27:00 10° N 02:32:40 71° ENE 02:36:33 21° SSE
ERS-1 Rocket 3.9 02:36:15 27° E 02:37:34 31° ENE 02:41:57 10° N
Cosmos 1300 Rocket 4.3 02:38:52 10° SSW 02:43:06 52° WNW 02:47:25 10° N
Celestis-02/Orion 38 4.5 02:40:45 32° SE 02:43:10 75° ENE 02:48:15 10° NNW
MOS 1 4.2 02:45:26 26° SSE 02:48:46 81° ENE 02:54:30 10° NNW
Cosmos 1934 Rocket 4.4 02:43:45 10° N 02:49:34 43° ENE 02:51:27 34° ESE
In-Cosmos 22 Rocket 4.4 02:45:18 10° NNW 02:50:41 69° W 02:54:48 18° S
SJ 16-02 2.6 02:47:07 10° NW 02:51:07 37° WSW 02:54:07 16° SSW
Okean 2 Rocket 3.4 02:52:04 45° ESE 02:52:18 46° E 02:56:37 10° NNE
CZ-4C R/B 3.4 02:51:13 10° N 02:54:37 59° WNW 02:56:34 22° SSW
Cosmos 371 Rocket 4.0 02:53:38 10° N 02:58:02 35° ENE 02:58:27 34° ENE
Cosmos 2297 Rocket 3.6 02:53:52 10° N 02:58:17 23° NE 02:59:36 21° ENE
IRS-1C Rocket 4.0 02:56:50 39° SSE 02:58:51 77° ENE 03:04:08 10° N
Cosmos 2369 Rocket 4.2 02:55:56 10° WSW 03:00:48 29° NW 03:05:41 10° N
Cosmos 1503 Rocket 4.5 02:55:43 10° N 03:00:52 44° ENE 03:01:49 40° E
NOSS 3-1 (A) 2.9 02:59:54 10° SSW 03:04:40 65° ESE 03:10:19 10° NE
Cosmos 2098 Rocket 4.3 03:00:38 10° SSW 03:05:50 46° W 03:10:09 10° N
MetOp-B 4.1 03:05:02 40° SSE 03:07:04 89° WSW 03:12:28 10° NNW
Sich 1 Rocket 3.4 03:07:42 68° ESE 03:07:53 69° E 03:12:17 10° NNE
Spot 2 Rocket 3.8 03:07:30 44° E 03:08:01 46° ENE 03:12:50 10° N
Okean-O 3.3 03:06:02 28° SSW 03:08:03 50° W 03:12:20 10° NNW
Terra 2.0 03:09:26 50° E 03:09:39 50° ENE 03:14:14 10° N
Cosmos 304 Rocket 4.4 03:10:03 10° N 03:14:28 40° ENE 03:14:28 40° ENE
MOS 1 Rocket 4.5 03:22:06 27° NE 03:22:06 27° NE 03:24:50 10° N
IRS-1A Rocket 4.4 03:20:51 42° S 03:22:57 78° WSW 03:28:53 10° NNW
USA 245 4.0 03:22:34 58° SSE 03:23:45 86° ENE 03:28:47 10° NNW
Ariane Rocket 2.9 03:27:13 69° E 03:27:24 70° ENE 03:32:27 10° N
Cosmos 1656 4.3 03:29:29 39° ENE 03:29:29 39° ENE 03:33:20 10° NE
NOSS 3-1 (C) 4.3 03:23:41 10° WSW 03:28:23 42° NW 03:34:00 10° NNE
Okean 1 Rocket 3.6 03:29:40 50° NNE 03:29:40 50° NNE 03:33:05 10° NNE
Okean O Rocket 4.3 03:28:20 10° SW 03:30:46 15° W 03:33:15 10° NW
Cosmos 1241 Rocket 4.4 03:26:53 10° NNW 03:33:12 87° ENE 03:34:21 62° SE
SPOT 3 Rocket 3.4 03:34:30 72° E 03:34:35 73° ENE 03:39:48 10° N
Resurs 01 Rocket 4.4 03:34:40 10° WSW 03:36:42 13° W 03:38:44 10° WNW
Cosmos 1486 Rocket 4.4 03:34:05 10° NNW 03:39:11 55° WSW 03:39:52 51° SW
ATLAS 3B R/B 3.2 03:42:42 10° SW 03:49:42 64° NW 03:57:14 10° NNE
Iridium 4 Rocket 3.8 03:49:30 60° SW 03:50:14 67° W 03:55:54 10° N
Cosmos 1605 Rocket 3.8 03:48:41 10° N 03:55:08 82° E 03:55:30 78° SE
Cosmos 1932 4.3 03:51:56 10° NW 03:58:11 79° WSW 03:58:24 77° SSW
SL-4 R/B 4.4 04:02:30 10° NW 04:04:04 18° NNW 04:04:04 18° NNW
ATLAS 5 CENTAUR R/B 3.9 04:06:53 10° W 04:09:15 17° NW 04:11:49 10° N
Cosmos 2227 Rocket 3.0 04:08:20 10° NNW 04:12:58 41° NE 04:12:58 41° NE
ERS-1 Rocket 4.3 04:16:12 32° W 04:16:15 32° W 04:20:45 10° NNW
Cosmos 1727 Rocket 4.2 04:24:15 62° NE 04:24:15 62° NE 04:29:29 10° N
Cosmos 1697 Rocket 4.2 04:30:32 28° NE 04:30:32 28° NE 04:33:07 10° NNE
Cosmos 2100 Rocket 4.5 04:22:00 10° N 04:27:14 51° NE 04:27:14 51° NE
CZ-4C R/B 3.3 04:28:34 10° NNW 04:35:34 55° NE 04:36:24 53° ENE
Cosmos 2297 Rocket 3.0 04:37:12 10° NNW 04:41:24 47° NW 04:41:24 47° NW
COSMOS 2455 3.3 04:39:18 10° NNW 04:44:04 58° NNW 04:44:04 58° NNW
Terra 4.1 04:48:09 18° W 04:48:09 18° W 04:50:45 10° NW
Cosmos 2219 4.3 04:44:55 10° NNW 04:48:52 38° NNE 04:48:52 38° NNE
USA 229 DEB 4.0 05:03:21 55° NW 05:03:21 55° NW 05:09:56 10° NNE
USA 229 4.0 05:03:34 56° NW 05:03:34 56° NW 05:10:03 10° NNE
CENTAUR R/B 3.5 05:06:18 10° NNW 05:14:26 58° NE 05:15:26 55° ENE
Cosmos 2263 Rocket 3.5 05:12:11 10° NNW 05:15:40 35° N 05:15:40 35° N
Cosmos 2227 Rocket 4.3 05:52:45 10° NW 05:54:46 19° WNW 05:54:46 19° WNW
Cosmos 1980 Rocket 3.7 06:02:44 32° N 06:02:44 32° N 06:05:57 10° NNE
Cosmos 1844 Rocket 4.5 05:59:17 10° N 06:02:55 26° NNE 06:02:55 26° NNE
USA 267 4.3 06:04:36 30° ENE 06:06:53 39° NNE 06:12:52 10° NW
CZ-4C R/B 4.1 06:17:07 10° NW 06:21:30 34° WNW 06:21:30 34° WNW
NOSS 3-2 (A) 4.3 06:17:53 10° NW 06:24:00 64° NW 06:24:00 64° NW
Cosmos 2333 Rocket 4.0 06:52:51 25° NE 06:52:51 25° NE 06:55:29 10° NE
Cosmos 2360 Rocket 3.8 06:56:51 29° NE 06:56:51 29° NE 06:59:42 10° NE
Cosmos 2322 Rocket 3.5 07:06:40 36° NNE 07:06:40 36° NNE 07:09:53 10° NNE
CENTAUR R/B 4.1 06:57:12 10° NW 07:02:34 36° WNW 07:02:34 36° WNW
Cosmos 2219 Rocket 3.8 07:14:08 27° ENE 07:14:08 27° ENE 07:17:07 10° NE
USA 215 3.5 07:09:34 10° NE 07:15:23 62° N 07:15:23 62° N
SL-16 R/B 3.4 07:22:36 37° N 07:22:36 37° N 07:26:19 10° NNE
NOSS 3-4 (A) 4.4 07:26:04 37° ENE 07:26:04 37° ENE 07:29:44 10° NE
NOSS 3-4 (C) 4.4 07:26:07 37° ENE 07:26:07 37° ENE 07:29:47 10° NE
ADEOS II 4.0 07:33:12 10° NE 07:36:45 22° E 07:36:45 22° E
NOSS 3-2 (C) 4.4 07:30:32 10° NW 07:36:10 52° WNW 07:36:10 52° WNW
USA 267 3.9 07:51:52 44° NW 07:51:52 44° NW 07:56:07 10° NW
CZ-2D R/B 3.2 07:45:22 10° NNE 07:49:32 41° ENE 07:49:32 41° ENE
Cosmos 1634 Rocket 4.3 07:45:24 10° N 07:50:41 65° N 07:50:41 65° N
SL-16 R/B 3.9 07:51:52 20° ESE 07:55:20 34° ENE 08:00:49 10° N
Cosmos 2221 4.5 08:06:49 25° N 08:06:49 25° N 08:08:39 10° N
COSMOS 2428 3.3 08:10:38 50° E 08:10:38 50° E 08:15:40 10° NE
BlueWalker 3 4.4 08:15:54 21° NNE 08:15:54 21° NNE 08:18:31 10° ENE
CZ-2C R/B 2.9 08:17:16 67° ENE 08:17:16 67° ENE 08:22:28 10° N
Cosmos 2237 Rocket 3.9 08:16:42 22° ESE 08:17:47 23° E 08:22:09 10° NE
Lacrosse 5 2.8 08:21:30 42° NNW 08:21:30 42° NNW 08:25:50 10° NE
Cosmos 44 Rocket 4.0 08:23:32 55° N 08:23:32 55° N 08:27:43 10° NNE
CZ-2C R/B 3.6 08:18:35 10° NNE 08:23:30 53° E 08:23:30 53° E
ALOS 3.8 08:19:46 10° NE 08:23:47 29° E 08:23:56 29° E
Cosmos 2322 3.7 08:26:12 78° NE 08:26:12 78° NE 08:31:35 10° NNE
NPP 3.9 08:20:57 10° N 08:25:32 61° NNW 08:25:32 61° NNW
Resurs 1-4 Rocket 2.3 08:25:30 10° N 08:30:10 67° NNW 08:30:10 67° NNW
Cosmos 1536 4.4 08:29:37 10° N 08:32:13 32° NE 08:32:13 32° NE
Cosmos 2333 Rocket 3.3 08:34:50 32° NW 08:34:50 32° NW 08:39:38 10° N
USA 238 4.5 08:30:23 10° NW 08:35:37 41° W 08:35:37 41° W
Cosmos 2360 Rocket 3.5 08:38:35 26° NW 08:38:35 26° NW 08:43:15 10° N
Cosmos 2279 Rocket 4.1 08:35:32 10° NNW 08:41:09 56° WNW 08:41:09 56° WNW
Nadezhda 4 Rocket 3.9 08:44:01 62° SSE 08:45:06 80° E 08:51:13 10° N
Cosmos 1538 Rocket 3.9 08:48:33 79° SE 08:48:46 82° ESE 08:54:07 10° NNE
Cosmos 2322 Rocket 4.0 08:48:27 18° NW 08:48:58 18° NW 08:52:48 10° N
NOSS 0 Rocket 4.1 08:48:14 51° SSE 08:49:29 63° ESE 08:55:34 10° NNE
Okean 1 4.3 08:50:16 42° NE 08:50:16 42° NE 08:53:12 10° NNE
GP-B 3.5 08:45:29 10° N 08:49:50 56° E 08:49:53 56° E
IDEFIX/ARIANE 42P 3.3 08:45:15 10° N 08:49:33 41° NW 08:49:33 41° NW
Cosmos 2278 Rocket 3.0 08:45:04 10° NNW 08:50:36 51° ENE 08:56:07 10° SE
Meteor 2-17 Rocket 4.4 08:54:21 54° S 08:55:53 82° E 09:02:02 10° N
Cosmos 2219 Rocket 3.0 08:55:50 35° WNW 08:55:59 35° NW 09:01:06 10° N
COBE Rocket 4.5 08:53:03 10° N 08:56:45 43° NW 08:56:45 43° NW
BREEZE-M DEB (TANK) 4.5 09:00:46 40° SSE 09:01:40 45° SE 09:12:26 10° ENE
Cosmos 1461 3.9 08:58:17 10° NNW 09:01:56 40° NE 09:05:32 10° ESE
Gbstr 26 Del rocket 3.4 09:02:52 51° NNW 09:02:52 51° NNW 09:06:27 10° NE
RESURS DK-1 2.6 09:04:22 66° NNE 09:04:22 66° NNE 09:07:55 10° NNE
MSX 4.4 09:00:35 10° N 09:05:57 41° WNW 09:06:21 40° WNW
Cosmos 1151 Rocket 3.7 09:07:55 41° SE 09:08:52 50° E 09:13:03 10° NNE
CZ-2C R/B 4.1 09:05:58 10° NNE 09:10:33 31° E 09:14:38 12° SSE
ADEOS II 2.4 09:12:06 10° N 09:17:08 48° WNW 09:17:38 46° W
FENGYUN 3A 3.9 09:17:08 10° N 09:22:22 51° WNW 09:23:20 46° WSW
Meteor 1-19 Rocket 4.3 09:20:01 38° S 09:22:26 89° W 09:28:29 10° N
Cosmos 1408 Rocket 4.3 09:18:47 10° NNW 09:21:54 38° NW 09:21:54 38° NW
Cosmos 923 Rocket 4.1 09:23:20 40° S 09:25:15 74° ESE 09:30:30 10° NNE
ATLAS 5 CENTAUR R/B 4.5 09:23:31 10° NNW 09:27:19 22° NE 09:31:44 10° E
Cosmos 1092 Rocket 3.9 09:24:59 30° S 09:28:15 90° ENE 09:34:26 10° N
CZ-2D R/B 3.3 09:25:53 10° N 09:30:15 26° WNW 09:30:50 26° WNW
Envisat 3.3 09:26:35 10° NNE 09:31:38 62° E 09:34:51 22° S
NOSS 2-2 (E) 4.0 09:29:21 10° NW 09:34:04 82° SW 09:40:51 10° SSE
Cosmos 2026 Rocket 3.9 09:32:12 28° SSW 09:35:43 81° W 09:42:07 10° N
BREEZE-M DEB (TANK) 2.9 09:34:05 36° SW 09:36:13 63° SSE 09:39:08 10° ENE
SL-16 R/B 2.9 09:36:56 34° SW 09:38:45 42° W 09:44:37 10° NNW
Cosmos 1805 Rocket 3.6 09:35:21 10° NNW 09:39:34 51° W 09:39:59 49° WSW
EO 1 Delta rocket 3.7 09:35:12 10° N 09:39:51 76° WNW 09:41:49 35° SSW
Cosmos 1500 Rocket 4.0 09:35:55 10° NNW 09:40:03 41° W 09:40:03 41° W
UNK 3.9 09:40:18 44° SW 09:40:59 48° W 09:45:27 10° NNW
Cosmos 1666 Rocket 4.2 09:38:49 10° N 09:43:14 57° E 09:47:35 10° SSE
CZ-4 R/B 3.7 09:42:57 10° N 09:47:43 76° WNW 09:49:59 30° SSW
NOSS 2-2 (D) 4.0 09:44:02 10° NW 09:48:40 85° SW 09:55:18 10° SSE
Meteor 1-27 Rocket 4.0 09:46:40 32° SW 09:49:02 51° WNW 09:54:37 10° N
Thor Agena Rocket 3.8 09:44:24 10° NNE 09:49:26 65° ESE 09:53:50 13° S
Cosmos 1733 3.1 09:46:05 10° NNW 09:49:35 51° W 09:49:46 50° WSW
Cosmos 1943 Rocket 2.2 09:44:07 10° NNW 09:49:49 85° ENE 09:55:29 10° SSE
YAOGAN 6 2.8 09:48:07 10° NNE 09:51:21 57° E 09:53:02 25° S
H-2A R/B 4.2 09:49:03 10° NE 09:53:04 23° E 09:57:07 10° SSE
Meteor 2-4 Rocket 3.7 09:48:37 14° S 09:53:18 76° E 09:58:48 10° NNE
BlueWalker 3 2.3 09:50:31 10° NW 09:54:20 64° NNE 09:58:07 10° ESE
COSMOS 2428 3.9 09:52:37 22° W 09:54:40 27° NW 09:59:29 10° N
NOAA 11 4.2 09:52:05 10° NNE 09:57:34 89° ESE 10:02:19 14° SSW
CZ-2C R/B 4.3 09:58:45 16° WNW 09:58:45 16° WNW 10:01:14 10° NW
ALOS 3.2 09:56:56 10° N 10:00:58 30° WNW 10:02:16 26° W
Cosmos 2237 Rocket 2.4 09:58:31 27° SW 10:01:25 53° WNW 10:07:00 10° NNE
Cosmos 1980 4.0 09:59:54 27° WSW 10:02:44 49° WNW 10:08:14 10° NNE
CZ-2C R/B 4.5 09:59:17 10° NNW 10:03:05 21° WNW 10:04:32 19° W
Cosmos 1867 4.3 09:58:55 10° NW 10:03:38 30° WSW 10:08:19 10° S
Sich 1 3.9 10:00:58 10° NNW 10:04:32 27° W 10:04:47 27° W
Cosmos 2112 Rocket 4.0 10:01:07 21° SSW 10:04:48 81° WNW 10:10:11 10° NNE
Lacrosse 5 4.0 10:01:25 10° WNW 10:05:03 19° NNW 10:08:41 10° NNE
Cosmos 1340 Rocket 2.7 10:04:12 28° SSW 10:06:03 63° WNW 10:09:55 10° N
Cosmos 2369 Rocket 4.4 10:04:02 10° N 10:08:52 28° NE 10:13:40 10° ESE
Resurs 1-4 Rocket 4.1 10:07:56 10° NW 10:09:42 12° NW 10:11:14 10° WNW
Cosmos 1805 3.1 10:07:02 10° NNW 10:10:40 55° W 10:13:52 13° S
DMSP B5D2-2 4.1 10:05:35 10° SSE 10:10:47 84° ENE 10:16:00 10° NNW
Cosmos 1328 Rocket 3.5 10:08:30 14° SSW 10:12:15 78° W 10:16:43 10° N
ATLAS 2AS CENTAUR R/B 3.0 10:07:19 13° SSW 10:14:00 75° ESE 10:21:11 10° NE
SWAS 4.3 10:12:41 10° NNW 10:16:52 67° WSW 10:21:01 10° SSE
IRS-1D 3.5 10:15:40 10° N 10:20:44 70° WNW 10:25:53 10° SSW
Chandra Rocket (1) 4.2 10:19:51 10° S 10:21:11 11° SSE 10:22:51 10° SE
Cosmos 1633 Rocket 3.0 10:16:55 10° NNW 10:21:14 67° W 10:25:32 10° S
CSL-04 DEB 4.4 10:17:04 10° NNE 10:21:14 81° WNW 10:25:25 10° SSW
S3M 4.4 10:16:17 10° N 10:22:26 66° E 10:28:36 10° SSE
Cosmos 2266 Rocket 4.1 10:25:05 10° S 10:31:10 79° E 10:37:13 10° N
Cosmos 1680 Rocket 4.1 10:28:09 16° SW 10:32:00 41° WNW 10:37:01 10° N
Cosmos 2278 Rocket 3.2 10:29:51 10° NW 10:34:18 24° WSW 10:38:44 10° SSW
Iridium 51 3.9 10:34:31 10° SSW 10:37:51 58° W 10:41:09 10° N
Cosmos 1461 4.1 10:37:19 10° WNW 10:39:54 18° WSW 10:42:29 10° SSW
Cosmos 1420 Rocket 4.4 10:35:54 10° NW 10:40:49 42° WSW 10:45:45 10° S
Cosmos 2056 Rocket 3.8 10:39:41 10° NNW 10:44:50 47° WSW 10:49:59 10° S
USA 308 2.9 10:41:22 11° SW 10:44:54 64° SE 10:48:48 10° ENE
Cosmos 1674 2.7 10:42:35 10° S 10:45:59 70° E 10:49:24 10° NNE
CZ-2C R/B 3.3 10:44:00 10° N 10:48:39 35° WNW 10:53:15 10° SW
Cosmos 2315 Rocket 4.4 10:42:59 10° N 10:49:12 72° E 10:55:21 10° SSE
Cosmos 494 Rocket 3.9 10:44:07 10° SSW 10:49:17 77° WNW 10:54:27 10° NNE
Cosmos 1766 3.1 10:47:05 10° NNW 10:50:43 58° W 10:54:19 10° S
Cosmos 1939 Rocket 3.4 10:47:20 10° NNE 10:51:04 56° E 10:54:47 10° S
SL-16 R/B 2.3 10:46:21 10° SSW 10:51:58 68° WNW 10:57:38 10° NNE
Cosmos 1452 Rocket 4.2 10:46:46 10° NNW 10:51:59 61° ENE 10:57:10 10° SSE
Cosmos 1340 3.6 10:50:06 10° NW 10:52:51 22° W 10:55:34 10° SW
Cosmos 1553 Rocket 4.5 10:49:05 10° NNW 10:54:48 38° W 11:00:24 10° SSW
Cosmos 1626 2.8 10:52:15 10° SW 10:55:08 28° WNW 10:58:02 10° NNW
Cosmos 1975 4.2 10:54:39 10° NW 10:57:24 19° W 11:00:09 10° SW
Cosmos 921 Rocket 3.9 10:53:42 10° SW 10:57:28 30° WNW 11:01:20 10° N
KORONAS-FOTON 3.7 10:54:28 10° S 10:58:08 84° E 11:01:48 10° N
Cosmos 1656 Rocket 3.8 10:53:01 10° NNW 10:58:27 82° ENE 11:03:52 10° SSE
NOSS 3-1 (C) 4.2 10:52:16 10° NW 10:59:49 83° WSW 11:08:53 10° SSE
Cosmos 1515 Rocket 3.9 10:57:48 10° SSW 11:02:05 49° WNW 11:06:26 10° N
Cosmos 1869 Rocket 4.1 11:01:11 10° N 11:05:31 65° E 11:09:49 10° SSE
CZ-3 R/B 3.9 11:07:47 10° SW 11:20:53 25° S 11:26:36 10° SE
